Total_Precipitation_Accumulation
1.47 1.58 1.70 1.73 1.77 1.85 1.96 2.06 2.12 2.02 1.80 1.66 1.67 1.67 1.69 1.74 1.89 1.54 1.48 1.71 1.60 1.52 1.45 1.36 1.29 1.27 1.26 1.30 1.36 1.43 1.52 1.60 1.67 1.73 1.81 1.95 2.04 2.11
1.21 1.29 1.40 1.49 1.57 1.66 1.78 1.88 1.93 1.91 1.84 1.66 1.60 1.60 1.59 1.54 1.70 1.38 1.39 1.58 1.47 1.39 1.32 1.26 1.20 1.19 1.17 1.19 1.24 1.26 1.26 1.25 1.29 1.31 1.33 1.40 1.52 1.69
1.22 1.27 1.32 1.37 1.45 1.48 1.50 1.55 1.68 1.79 1.87 1.80 1.63 1.59 1.60 1.56 1.49 1.31 1.22 1.20 1.24 1.30 1.26 1.22 1.14 1.07 1.07 1.05 1.01 1.01 1.00 1.00 1.03 1.06 1.07 1.11 1.17 1.25
1.11 1.16 1.16 1.16 1.23 1.33 1.39 1.38 1.43 1.55 1.67 1.73 1.64 1.51 1.47 1.48 1.44 1.37 1.17 1.06 1.05 1.10 1.04 0.99 0.99 0.94 0.89 0.88 0.87 0.85 0.82 0.83 0.85 0.89 0.91 0.94 0.99 1.05
0.96 0.96 0.97 1.00 1.01 1.05 1.11 1.17 1.21 1.24 1.37 1.42 1.42 1.36 1.32 1.27 1.31 1.30 1.20 1.22 1.04 1.01 0.91 0.83 0.80 0.78 0.73 0.69 0.71 0.75 0.74 0.70 0.67 0.70 0.72 0.76 0.79 0.82
0.76 0.76 0.81 0.89 0.90 0.92 0.90 0.94 1.00 1.11 1.21 1.25 1.23 1.24 1.24 1.16 1.19 1.23 1.21 1.16 1.04 0.87 0.88 0.76 0.68 0.62 0.62 0.62 0.58 0.58 0.60 0.64 0.71 0.69 0.62 0.56 0.56 0.56
0.63 0.61 0.61 0.71 0.80 0.78 0.72 0.81 0.92 1.03 1.09 1.12 1.07 1.01 1.01 1.06 1.07 1.05 1.04 1.04 0.98 0.86 0.90 0.81 0.74 0.70 0.70 0.67 0.61 0.57 0.57 0.53 0.53 0.56 0.54 0.49 0.47 0.45
0.64 0.64 0.58 0.58 0.61 0.59 0.59 0.71 0.86 0.90 0.95 1.02 1.01 1.00 1.00 1.00 1.01 1.02 1.06 1.09 1.10 0.92 0.88 0.81 0.74 0.78 0.76 0.71 0.66 0.56 0.53 0.55 0.50 0.47 0.46 0.45 0.44 0.44
0.61 0.60 0.52 0.49 0.54 0.55 0.56 0.60 0.68 0.70 0.78 0.92 1.02 1.00 1.01 1.05 1.10 1.06 1.12 1.17 1.14 1.04 1.06 0.97 0.78 0.73 0.60 0.56 0.59 0.51 0.49 0.51 0.51 0.47 0.47 0.46 0.44 0.44
0.56 0.56 0.58 0.57 0.53 0.53 0.53 0.56 0.66 0.72 0.74 0.78 0.94 0.95 0.92 0.97 1.04 1.11 1.18 1.19 1.15 1.11 1.16 1.13 0.83 0.75 0.62 0.65 0.61 0.49 0.44 0.43 0.46 0.46 0.45 0.45 0.45 0.47
0.47 0.44 0.48 0.52 0.53 0.51 0.55 0.67 0.75 0.80 0.68 0.68 0.78 0.85 0.87 0.92 0.92 0.99 1.19 1.35 1.30 1.09 1.08 1.15 0.95 0.81 0.72 0.72 0.65 0.56 0.49 0.44 0.40 0.41 0.44 0.47 0.48 0.51
0.47 0.44 0.41 0.42 0.43 0.43 0.54 0.68 0.79 0.79 0.72 0.73 0.88 0.98 0.95 1.02 1.00 1.03 1.25 1.34 1.30 1.26 1.09 1.11 1.04 1.01 0.96 0.77 0.71 0.67 0.63 0.56 0.46 0.43 0.42 0.44 0.52 0.55
0.47 0.49 0.44 0.33 0.31 0.35 0.48 0.57 0.65 0.63 0.73 0.91 1.01 1.02 1.04 1.09 1.05 1.01 1.17 1.26 1.33 1.38 1.15 1.14 1.13 1.13 1.16 0.94 0.74 0.69 0.70 0.71 0.68 0.68 0.65 0.56 0.52 0.52
0.50 0.48 0.42 0.33 0.32 0.36 0.45 0.53 0.54 0.63 0.81 1.00 1.08 1.06 0.99 0.96 0.97 0.95 1.06 1.13 1.17 1.15 1.07 1.10 1.22 1.23 1.16 0.99 0.84 0.73 0.75 0.83 0.91 0.98 0.96 0.88 0.72 0.68
0.38 0.35 0.32 0.34 0.37 0.49 0.52 0.52 0.62 0.82 0.94 1.02 1.10 1.09 0.99 0.92 0.89 0.84 0.92 1.05 1.05 0.90 0.77 0.82 1.02 1.05 1.09 1.04 0.95 0.89 0.89 0.89 1.01 1.16 1.19 1.11 0.98 0.84
0.36 0.37 0.41 0.47 0.52 0.60 0.69 0.79 0.83 0.88 0.88 0.97 1.03 0.98 0.87 0.83 0.86 0.84 0.91 0.99 1.05 0.96 0.77 0.71 0.80 0.93 1.00 0.94 0.95 0.96 0.95 1.04 1.06 1.17 1.30 1.33 1.19 0.94
0.29 0.46 0.68 0.74 0.81 0.87 0.90 0.95 1.00 0.93 0.86 0.87 0.91 0.92 0.88 0.84 0.83 0.80 0.86 0.90 0.99 0.98 0.86 0.75 0.74 0.78 0.79 0.81 0.89 0.92 0.95 1.03 1.14 1.21 1.33 1.47 1.41 1.15
0.33 0.57 0.69 0.74 0.82 0.83 0.84 0.87 0.93 0.93 0.86 0.81 0.82 0.84 0.83 0.80 0.81 0.76 0.76 0.85 0.94 0.89 0.84 0.77 0.74 0.76 0.77 0.73 0.79 0.87 0.93 1.09 1.20 1.23 1.21 1.33 1.51 1.37
0.50 0.65 0.67 0.72 0.76 0.72 0.72 0.77 0.81 0.80 0.73 0.71 0.71 0.71 0.69 0.70 0.76 0.77 0.72 0.72 0.73 0.70 0.69 0.67 0.71 0.78 0.84 0.89 0.90 0.98 1.04 1.11 1.18 1.17 1.17 1.26 1.45 1.40
0.60 0.64 0.65 0.66 0.68 0.68 0.66 0.66 0.64 0.59 0.55 0.57 0.63 0.65 0.65 0.66 0.67 0.69 0.63 0.60 0.64 0.63 0.61 0.65 0.70 0.76 0.83 0.88 1.06 1.19 1.12 0.99 1.01 1.14 1.23 1.27 1.38 1.37
0.53 0.55 0.56 0.56 0.57 0.63 0.62 0.55 0.51 0.48 0.46 0.47 0.51 0.57 0.59 0.57 0.58 0.56 0.51 0.44 0.51 0.56 0.59 0.61 0.65 0.66 0.69 0.76 0.91 1.07 1.09 1.12 1.08 1.12 1.18 1.18 1.09 0.99
0.44 0.46 0.45 0.43 0.46 0.49 0.47 0.44 0.42 0.43 0.42 0.40 0.41 0.41 0.42 0.45 0.47 0.45 0.42 0.41 0.45 0.47 0.50 0.53 0.54 0.55 0.61 0.73 0.87 0.99 1.00 0.91 0.89 0.96 1.00 0.90 0.79 0.81
0.41 0.40 0.37 0.35 0.35 0.36 0.38 0.39 0.38 0.38 0.38 0.40 0.38 0.35 0.34 0.35 0.34 0.33 0.33 0.31 0.31 0.32 0.37 0.43 0.45 0.46 0.49 0.52 0.60 0.66 0.63 0.59 0.57 0.60 0.71 0.80 0.79 0.82